Location: Campos dos Goitacazes
(21.7500°S, 41.3000°W)
Time: 14:02:54
(UTC-03:00)

Tiangong - Pass Details

Date: 23 June 2024
Orbit: 374 x 379 km, 41.5° (Epoch: 11 July)

Event Time Altitude Azimuth Distance (km) Brightness Sun altitude
Exits shadow 05:35:51 - 198° (SSW) 1,600 0.6 -11.0°
Reaches altitude 10° 05:36:35 10° 189° (S) 1,398 0.4 -10.8°
Maximum altitude 05:38:33 15° 150° (SSE) 1,124 0.3 -10.4°
Drops below altitude 10° 05:40:31 10° 111° (ESE) 1,395 1.4 -10.0°
Sets 05:43:11 0° 87° (E) 2,245 3.3 -9.4°
